Location: Poughquag
(41.6090°N, 73.6820°W)
Time: 12:21:39
(UTC-04:00)

Tiros 1 despin weight - Pass Details

Date: 01 June 2020
Orbit: 593 x 642 km, 48.2° (Epoch: 07 July)

Event Time Altitude Azimuth Distance (km) Brightness Sun altitude
Rises 14:43:51 0° 295° (WNW) 2,897 ? 59.7°
Reaches altitude 10° 14:46:16 10° 301° (WNW) 1,981 ? 59.3°
Maximum altitude 14:50:38 46° 15° (NNE) 828 ? 58.6°
Drops below altitude 10° 14:54:57 10° 89° (E) 1,947 ? 57.9°
Sets 14:57:18 0° 96° (E) 2,841 ? 57.5°
